Tracking 18840 objects as of 17-November-2017
HD Live streaming from Space Station
objects crossing your sky now

FENGYUN 1C DEB

Track FENGYUN 1C DEB now!
10-day predictions


NORAD ID: 31212
Int'l Code: 1999-025BKS
Perigee: 833.7 km
Apogee: 961.2 km
Inclination: 99.1 °
Period: 102.8 minutes
Semi major axis: 7268 km
RCS: 0.0061 m2 (small)
Launch date: May 10, 1999
Source: People's Republic of China (PRC)
Launch site: Taiyaun Space Center, China (TSC)

Note: This is SATELLITE DEBRIS
aabbcc
Your satellite tracking list
Your tracking list is empty




NASA's NSSDC Master Catalog

Two Line Element Set (TLE):
1 31212U 99025BKS 17321.38912483  .00000892  00000-0  60445-3 0  9997
2 31212  99.0931 273.6985 0087675  43.3042 317.4970 14.01012351542966
Source of the keplerian elements: AFSPC